Location: Stanford
(52.2833°N, 2.4333°W)
Time: 23:46:45
(UTC+00:00)

Cosmos 2263 Rocket - Pass Details

Date: 22 January 2021
Orbit: 825 x 847 km, 71.0° (Epoch: 01 March)

Event Time Altitude Azimuth Distance (km) Brightness Sun altitude
Rises 18:24:59 0° 234° (SW) 3,400 6.6 -15.8°
Reaches altitude 10° 18:27:34 10° 242° (WSW) 2,466 5.8 -16.2°
Maximum altitude 18:32:55 42° 312° (NW) 1,199 3.3 -17.0°
Drops below altitude 10° 18:38:17 10° 23° (NNE) 2,467 4.3 -17.8°
Enters shadow 18:38:29 - 24° (NNE) 2,537 4.4 -17.9°
